sat.trackr.live / text

‹ back to catalog

STARLINK-11557 [DTC]

NORAD 62837 · 2025-019J

PAYLOAD ACTIVE UNKNOWN

§ Identity

Operator
Country
US
Launch date
2025-01-27
Launch site
AFETR
Launch vehicle
Mass (kg)
RCS (m²)

Purposes: comms

External: N2YO · Heavens-Above · Gunter

§ Orbital elements

Epoch: 2026-05-24T20:53:47.010336Z

Period
91.67 min
Inclination
42.9993°
Eccentricity
0.0001488
Mean motion
15.70934447 rev/d
Perigee alt
355.2 km
Apogee alt
357.2 km
Semi-major
6,734.4 km
B*
1.4466e-3
RAAN
206.6455°
Arg perigee
291.3948°
Mean anomaly
68.6761°
Rev number
7,586

§ Raw data

STARLINK-11557 [DTC]1 62837U 25019J   26144.87068299  .00190237  00000+0  14466-2 0  99932 62837  42.9993 206.6455 0001488 291.3948  68.6761 15.70934447 75863

JSON: /api/v1/satellites/62837 · /tle

For live sub-satellite position, see the globe view (requires WebGL).

§ Visibility from observer

Set your observer location to see the next 7 days of passes ≥ 10°. The values pass through the URL so the page stays shareable.

No JS? Fill the form by hand. The geolocation button needs JavaScript.